Wind_Speed
19 19 19 20 20 19 20 20 20 20 20 20 19 19 20 20 21 21 21 21 22 22 22 22 22 22 22 22 22 24 25 25 25 26 27 27 27 28 28 27 27 27 26
20 20 21 22 21 21 21 21 21 21 22 21 22 22 22 23 23 22 22 22 23 23 23 22 22 22 22 22 23 24 25 26 26 26 27 27 27 29 29 29 28 28 28
21 22 23 23 22 22 22 23 23 23 23 23 24 24 24 24 24 23 23 23 23 23 23 23 23 22 23 23 24 25 25 26 26 27 28 28 28 29 30 30 30 30 29
23 23 23 23 23 23 23 23 24 25 24 24 25 26 25 25 24 24 24 24 24 23 23 24 23 23 24 24 25 27 27 27 28 28 29 29 29 29 30 31 31 30 30
24 24 24 24 24 24 24 25 25 26 26 26 27 26 26 26 26 26 25 25 25 25 25 25 25 24 25 25 26 27 27 28 29 29 29 29 29 29 29 29 29 29 29
24 25 25 25 25 25 25 26 26 27 27 27 26 25 25 26 26 26 26 26 26 26 26 26 26 26 26 27 27 27 27 28 28 29 29 29 29 29 29 29 29 28 27
25 26 25 26 26 26 27 27 27 27 26 27 26 26 26 27 26 26 25 25 26 26 26 26 27 28 28 28 28 27 27 27 28 28 28 29 29 29 29 29 28 28 28
25 25 26 27 27 27 28 28 27 26 26 27 27 27 27 27 26 26 26 26 27 27 27 27 27 28 27 28 28 28 28 29 29 30 30 29 29 29 29 28 28 28 29
25 26 26 27 27 27 27 28 27 27 26 26 27 27 27 27 26 26 26 27 27 27 27 28 28 28 27 27 28 28 28 28 29 29 30 30 29 29 30 29 29 29 28
26 27 27 27 26 27 27 28 27 27 26 27 28 28 28 28 26 26 26 26 27 27 27 27 27 27 27 27 27 27 26 27 28 28 28 29 29 29 29 29 28 28 28
27 27 28 27 27 27 27 27 26 27 28 28 28 28 28 27 27 26 26 27 27 27 27 27 27 26 26 26 26 26 26 27 27 27 27 28 28 28 28 28 27 27 26
28 28 28 28 28 27 26 26 27 27 28 28 27 27 27 26 26 26 27 26 26 26 26 26 26 25 25 26 26 26 27 28 28 28 28 27 27 27 27 27 27 26 26
28 28 28 28 27 27 26 26 27 27 27 27 26 26 26 25 26 26 26 26 26 26 26 25 25 25 25 25 26 26 27 27 27 27 26 26 27 27 26 26 26 25 25
28 28 27 27 27 26 26 26 26 26 26 26 26 26 25 25 25 25 25 25 25 25 25 24 24 24 25 25 25 26 26 26 26 26 26 27 27 26 26 25 25 24 24
28 27 27 26 26 26 25 26 26 26 25 25 25 25 25 25 24 24 25 25 25 25 24 24 24 24 24 24 24 25 26 26 26 27 27 27 26 25 25 24 24 24 23
27 26 26 25 25 25 25 25 24 24 24 24 24 24 25 25 25 25 25 25 25 24 24 24 24 24 25 24 24 25 25 26 26 26 26 26 25 24 24 23 23 23 23
26 26 25 25 25 25 24 24 24 24 24 24 24 24 24 24 24 24 25 25 25 24 24 25 25 26 26 25 25 25 26 26 26 26 26 25 24 24 23 23 23 23 23
26 26 25 25 25 25 25 25 25 24 24 23 23 24 24 24 24 24 24 24 25 25 25 25 25 26 25 25 25 25 25 26 26 25 25 25 24 24 23 23 23 23 23
25 25 25 24 24 24 24 25 24 24 23 23 23 23 24 24 24 24 24 24 25 25 25 25 25 25 25 26 25 25 25 25 25 25 25 25 24 23 22 22 21 21 21
25 25 24 24 23 23 23 24 24 23 23 24 24 24 24 24 24 24 24 25 25 24 24 25 25 25 25 24 24 25 25 26 25 25 25 24 23 23 22 21 21 21 20
24 24 24 23 22 22 23 22 23 23 24 25 25 24 24 24 24 24 24 24 24 24 25 25 25 25 24 24 24 25 26 25 25 25 25 23 23 22 22 22 21 20 20
23 22 21 21 21 22 22 22 23 23 24 25 25 24 24 24 24 24 24 23 24 25 25 25 26 25 25 25 25 25 26 25 25 25 25 24 23 23 22 22 21 20 20
22 21 21 21 21 21 22 23 23 23 24 24 24 24 23 24 24 24 24 25 26 26 26 26 26 25 25 25 25 25 25 25 25 25 24 24 24 23 22 21 20 20 20
21 21 22 22 22 22 23 23 23 24 24 24 24 24 24 25 25 25 25 26 26 26 26 26 26 26 26 26 26 25 25 26 26 25 24 24 23 22 21 21 20 20 19
22 22 23 22 22 22 23 24 24 24 24 24 25 25 25 25 25 25 26 26 27 27 26 26 26 26 27 26 26 26 26 26 26 26 25 24 23 22 21 20 20 19 18
23 23 22 22 23 23 24 25 25 25 25 25 25 25 25 26 26 26 27 27 28 28 27 26 26 26 26 26 26 26 26 25 25 25 25 24 23 22 21 20 19 19 18
Wind_Direction
305 309 313 317 316 315 315 315 314 314 314 312 310 311 309 308 306 304 301 301 298 297 296 295 295 292 287 286 286 286 284 283 285 284 283 282 282 282 282 280 279 277 275
305 309 311 313 313 312 311 313 311 310 311 311 310 310 310 308 306 305 303 301 299 297 296 295 294 291 289 287 287 286 285 283 283 284 283 282 281 280 281 281 279 277 275
302 304 307 309 308 309 310 309 309 308 308 307 308 308 309 307 306 305 304 302 301 300 298 296 294 292 290 287 287 287 286 285 286 285 284 284 282 281 280 280 279 277 275
298 300 303 305 305 306 307 308 308 307 306 306 307 307 308 306 305 305 303 302 300 299 298 297 294 291 290 287 287 287 286 286 287 287 286 285 283 283 282 279 278 276 273
295 296 299 301 303 304 305 306 307 307 308 308 307 306 306 305 304 303 302 301 300 299 298 296 294 292 292 290 291 290 288 288 289 288 286 286 284 284 282 280 278 276 274
293 294 295 297 300 301 303 304 305 306 307 308 309 308 306 306 304 303 302 300 299 298 297 295 293 292 293 293 292 290 289 288 290 288 285 285 284 283 282 280 279 277 274
293 293 295 295 297 299 300 301 302 303 304 305 307 309 309 308 307 305 304 303 302 300 298 295 294 292 292 292 291 291 291 290 290 290 289 287 286 285 282 280 278 277 275
294 295 295 295 295 297 299 301 300 302 302 302 304 306 307 307 307 306 304 303 303 302 299 295 293 292 293 292 291 292 292 291 290 289 288 288 287 286 286 283 278 276 275
293 293 295 296 296 298 298 300 300 301 303 303 305 306 306 306 306 305 304 304 304 303 300 297 296 295 292 291 292 292 293 292 290 288 288 287 287 287 286 284 282 278 277
295 295 297 297 297 297 298 299 299 299 300 302 305 306 306 306 305 305 305 304 304 303 301 299 298 297 294 292 293 294 294 294 292 291 290 290 288 287 286 284 281 279 277
295 295 296 298 298 298 300 300 300 300 300 302 303 305 306 305 305 305 305 305 305 305 303 302 301 299 297 296 295 295 296 295 294 293 292 291 289 288 287 283 280 279 278
295 294 295 297 298 301 302 302 301 300 299 302 304 304 305 304 305 305 306 307 307 306 304 303 302 300 299 298 296 298 298 297 296 295 294 293 292 291 288 283 281 279 277
295 295 296 296 297 300 302 304 303 302 302 302 303 305 306 305 305 305 306 307 307 306 305 303 302 300 300 299 297 298 299 299 298 296 295 294 294 293 288 284 282 279 275
295 296 296 295 298 300 302 304 304 304 304 303 302 303 305 307 306 306 306 307 307 307 306 305 302 301 300 299 298 298 299 299 299 297 295 295 295 292 289 286 283 279 275
296 295 296 297 299 300 302 303 303 304 304 305 305 304 306 308 308 308 308 308 309 310 308 306 305 305 305 303 302 302 302 300 299 298 297 296 294 291 289 287 283 280 277
295 294 294 297 299 300 300 302 304 304 305 305 304 303 305 307 307 309 309 310 310 310 309 308 308 307 307 305 303 303 303 303 302 301 299 297 295 292 290 287 283 281 279
293 293 294 296 298 298 299 301 303 304 304 305 306 307 307 307 307 309 309 310 309 310 309 308 309 310 310 307 305 304 304 305 305 302 300 298 294 292 290 286 282 280 279
292 292 293 294 296 297 299 301 302 303 304 305 306 308 309 308 309 309 310 310 310 309 309 309 309 309 309 308 307 305 305 305 305 303 301 298 295 293 293 290 285 281 280
290 291 293 293 295 298 300 301 302 303 304 305 306 308 309 310 309 308 309 309 309 309 309 310 310 309 308 306 305 306 307 306 305 304 302 299 296 294 293 292 288 284 281
289 289 291 292 295 297 298 300 302 304 305 305 306 307 307 308 307 308 308 307 306 306 307 309 310 310 308 307 307 307 307 307 306 304 303 300 297 295 292 291 289 286 283
289 288 289 290 291 293 296 300 302 305 305 305 306 307 307 306 307 308 308 308 309 310 309 308 310 311 310 308 307 307 307 307 307 306 304 302 298 296 293 292 290 289 286
291 289 288 289 293 295 297 299 302 304 304 305 305 305 305 305 304 305 306 308 309 311 313 313 312 310 310 307 306 306 306 307 307 307 304 302 300 298 296 293 289 287 287
289 289 290 292 295 297 298 300 302 304 306 307 307 306 306 307 308 307 306 308 310 311 311 311 311 311 312 311 308 306 306 306 307 308 306 303 301 299 295 291 288 287 286
290 290 290 293 294 296 298 300 302 304 304 305 307 308 307 308 309 309 310 311 310 310 310 310 309 310 311 311 311 308 306 307 307 307 305 303 302 299 296 292 289 286 284
289 289 291 294 294 297 299 299 300 301 302 304 305 306 306 306 306 307 309 309 310 310 309 308 307 308 310 311 311 310 308 307 307 308 306 304 302 299 296 292 289 286 283
286 288 290 293 295 298 300 300 300 301 302 303 304 304 304 305 305 305 307 308 309 309 309 308 308 308 309 309 309 310 310 309 308 307 305 303 302 299 296 292 288 286 283
Height
5863 5861 5859 5857 5855 5853 5851 5849 5846 5844 5842 5839 5838 5836 5834 5832 5830 5827 5825 5823 5822 5820 5819 5817 5816 5814 5814 5813 5812 5811 5810 5809 5809 5808 5807 5807 5806 5805 5804 5804 5803 5803 5802
5859 5857 5855 5853 5851 5849 5847 5844 5842 5840 5838 5835 5833 5831 5829 5826 5824 5822 5820 5818 5816 5814 5813 5811 5810 5808 5808 5806 5805 5804 5802 5801 5801 5800 5799 5798 5798 5797 5796 5795 5794 5794 5794
5855 5853 5851 5849 5846 5844 5842 5840 5837 5835 5833 5830 5828 5825 5823 5820 5818 5816 5814 5812 5810 5808 5806 5805 5804 5802 5801 5800 5798 5796 5795 5794 5793 5792 5791 5790 5789 5788 5787 5787 5786 5785 5785
5849 5848 5846 5844 5841 5839 5837 5835 5832 5830 5827 5825 5822 5820 5817 5814 5812 5810 5807 5806 5804 5802 5800 5798 5797 5795 5794 5793 5791 5789 5787 5786 5785 5784 5783 5782 5781 5779 5778 5777 5777 5776 5776
5844 5843 5841 5838 5836 5834 5832 5829 5827 5824 5821 5819 5816 5813 5810 5808 5805 5803 5801 5799 5797 5795 5793 5791 5790 5788 5786 5785 5783 5781 5779 5778 5777 5776 5775 5773 5772 5770 5769 5768 5768 5767 5767
5838 5837 5835 5833 5830 5828 5826 5824 5821 5818 5815 5813 5810 5807 5804 5801 5799 5796 5794 5792 5790 5788 5786 5784 5782 5781 5779 5777 5776 5774 5772 5770 5768 5766 5766 5764 5763 5761 5760 5759 5758 5758 5759
5833 5831 5829 5827 5825 5822 5820 5817 5815 5812 5809 5806 5804 5801 5798 5795 5792 5789 5787 5784 5782 5780 5778 5776 5774 5773 5771 5769 5767 5766 5764 5762 5760 5759 5757 5755 5754 5753 5751 5750 5749 5749 5749
5827 5825 5823 5820 5818 5816 5813 5811 5808 5805 5803 5800 5797 5794 5791 5788 5785 5783 5780 5778 5775 5773 5771 5768 5766 5764 5762 5761 5759 5757 5755 5754 5752 5750 5748 5747 5745 5744 5742 5741 5740 5740 5740
5820 5818 5816 5814 5811 5809 5807 5804 5802 5799 5796 5794 5791 5788 5784 5781 5779 5776 5773 5771 5768 5766 5763 5760 5758 5756 5754 5752 5751 5749 5747 5745 5743 5741 5739 5738 5736 5735 5733 5733 5732 5732 5732
5814 5811 5809 5807 5805 5802 5800 5797 5795 5792 5790 5787 5784 5781 5777 5775 5772 5769 5766 5764 5761 5759 5756 5753 5751 5748 5746 5744 5743 5741 5739 5737 5735 5733 5731 5729 5727 5726 5725 5724 5723 5722 5722
5807 5805 5803 5800 5798 5795 5793 5790 5787 5785 5783 5780 5777 5774 5771 5768 5765 5762 5759 5756 5754 5751 5749 5746 5743 5741 5739 5737 5735 5733 5731 5729 5726 5724 5722 5721 5719 5718 5716 5715 5714 5714 5713
5800 5798 5796 5794 5791 5789 5786 5783 5780 5778 5775 5773 5770 5767 5764 5761 5758 5755 5753 5750 5747 5744 5741 5739 5736 5734 5732 5730 5728 5726 5723 5720 5719 5716 5715 5713 5711 5709 5708 5707 5706 5705 5704
5794 5792 5789 5787 5785 5782 5779 5776 5773 5771 5768 5766 5763 5761 5757 5754 5752 5749 5746 5743 5741 5738 5735 5732 5730 5727 5725 5723 5720 5718 5715 5713 5711 5709 5707 5705 5703 5701 5699 5698 5697 5696 5696
5787 5785 5783 5781 5778 5776 5773 5770 5767 5764 5762 5759 5757 5754 5751 5748 5745 5743 5740 5737 5734 5731 5728 5725 5723 5720 5718 5715 5713 5710 5708 5705 5703 5701 5699 5697 5695 5693 5691 5690 5689 5688 5688
5780 5778 5776 5774 5772 5769 5767 5764 5761 5758 5756 5753 5751 5748 5745 5743 5740 5736 5733 5730 5728 5725 5722 5719 5716 5713 5711 5708 5705 5703 5700 5698 5696 5693 5691 5689 5687 5686 5684 5682 5681 5680 5680
5773 5771 5769 5768 5765 5763 5761 5758 5755 5752 5750 5747 5745 5742 5739 5737 5734 5731 5728 5725 5722 5719 5716 5713 5710 5707 5704 5701 5699 5696 5694 5691 5688 5686 5684 5682 5680 5678 5676 5675 5674 5673 5672
5766 5764 5763 5761 5759 5757 5755 5752 5749 5747 5744 5742 5739 5736 5733 5731 5728 5725 5722 5719 5716 5713 5710 5707 5704 5701 5698 5695 5692 5689 5687 5684 5681 5679 5677 5675 5673 5671 5669 5668 5667 5665 5664
5759 5757 5756 5754 5752 5751 5748 5746 5744 5741 5739 5736 5733 5730 5728 5725 5722 5720 5717 5714 5711 5708 5705 5701 5698 5695 5692 5689 5686 5683 5680 5677 5675 5672 5670 5668 5666 5664 5662 5661 5659 5658 5657
5752 5751 5749 5748 5746 5744 5742 5740 5738 5735 5733 5730 5728 5725 5722 5719 5717 5714 5711 5708 5705 5702 5699 5695 5692 5689 5686 5683 5679 5677 5674 5671 5669 5666 5663 5661 5659 5657 5655 5654 5652 5651 5650
5746 5744 5743 5741 5740 5738 5736 5734 5732 5730 5727 5725 5722 5720 5717 5714 5711 5709 5706 5702 5699 5696 5692 5689 5686 5683 5680 5676 5674 5671 5668 5665 5662 5659 5657 5654 5652 5650 5648 5647 5645 5644 5643
5739 5738 5736 5735 5733 5732 5730 5728 5726 5724 5722 5719 5716 5714 5711 5708 5706 5703 5700 5697 5693 5690 5687 5684 5680 5677 5674 5671 5668 5665 5662 5659 5656 5653 5650 5648 5646 5644 5642 5640 5639 5637 5636
5733 5731 5730 5729 5727 5726 5724 5722 5720 5718 5716 5713 5711 5708 5705 5703 5700 5697 5694 5691 5688 5684 5681 5678 5674 5671 5668 5665 5662 5659 5656 5653 5650 5647 5644 5642 5640 5638 5636 5634 5633 5631 5630
5726 5725 5724 5723 5722 5720 5718 5717 5714 5712 5710 5707 5705 5702 5699 5696 5694 5691 5688 5685 5682 5679 5675 5672 5669 5665 5662 5659 5655 5653 5650 5647 5644 5641 5638 5636 5633 5631 5629 5628 5626 5625 5624
5721 5720 5718 5717 5716 5714 5712 5711 5708 5706 5704 5701 5698 5696 5693 5691 5688 5685 5682 5679 5676 5673 5670 5666 5663 5660 5656 5653 5649 5646 5643 5641 5638 5635 5632 5629 5627 5625 5623 5621 5620 5619 5618
5715 5713 5712 5711 5709 5708 5706 5704 5702 5699 5697 5695 5692 5689 5687 5684 5681 5679 5676 5673 5670 5666 5663 5660 5657 5653 5650 5647 5643 5640 5637 5634 5631 5628 5625 5623 5620 5618 5616 5614 5613 5612 5611
5708 5707 5705 5704 5703 5701 5699 5697 5695 5693 5690 5688 5685 5683 5680 5677 5675 5672 5669 5666 5663 5660 5656 5653 5650 5647 5643 5640 5637 5634 5631 5628 5624 5621 5618 5616 5613 5611 5609 5608 5606 5605 5605